Location: Borz?cin
(51.1714°N, 19.6030°E)
Time: 22:52:14
(UTC+00:00)

Cosmos 1766 - Pass Details

Date: 19 May 2025
Orbit: 443 x 457 km, 82.5° (Epoch: 16 June)

Event Time Altitude Azimuth Distance (km) Brightness Sun altitude
Rises 21:27:54 0° 350° (N) 2,465 8.4 -17.2°
Reaches altitude 10° 21:29:59 10° 352° (N) 1,585 6.9 -17.3°
Maximum altitude 21:33:27 76° 79° (E) 466 2.8 -17.5°
Enters shadow 21:34:13 50° 152° (SSE) 577 3.0 -17.5°
